Location: Boncourt
(49.6160°N, 3.9448°E)
Time: 07:12:09
(UTC+00:00)

CZ-4 R/B - Pass Details

Date: 09 February 2023
Orbit: 526 x 586 km, 97.7° (Epoch: 30 March)

Event Time Altitude Azimuth Distance (km) Brightness Sun altitude
Rises 19:24:30 0° 188° (S) 2,780 4.9 -24.9°
Reaches altitude 10° 19:26:50 10° 198° (SSW) 1,877 4.1 -25.3°
Maximum altitude 19:30:31 33° 263° (W) 973 3.1 -25.9°
Drops below altitude 10° 19:34:10 10° 329° (NNW) 1,858 4.5 -26.5°
Sets 19:36:28 0° 339° (NNW) 2,747 5.3 -26.8°
